Weather History for Plant City, FL

Change the Weather History Date:

Saturday, November 3, 2012

  Actual Average Record
Temperature  
Mean Temperature 70 °F -  
Max Temperature 84 °F 81 °F 90 °F (1961)
Min Temperature 55 °F 60 °F 35 °F (1954)
Cooling Degree Days 4    
Growing Degree Days 20 (Base 50)    
Moisture  
Dew Point 60 °F    
Average Humidity 62    
Maximum Humidity 100    
Minimum Humidity 33    
Precipitation  
Precipitation 0.00 in - - ()
Sea Level Pressure  
Sea Level Pressure 30.12 in    
Wind  
Wind Speed 1 mph (NW)    
Max Wind Speed 7 mph    
Max Gust Speed -    
Visibility 8 miles    
Events      
Averages and records for this station are not official NWS values.
T = Trace of Precipitation, MM = Missing Value Source: NWS Daily Summary

Daily Weather History Graph

Daily Weather History Graph

Search for Another Location

Airport:

Trip Planner

Search our weather history database for the weather conditions in past years. The results will help you decide how hot, cold, wet, or windy it might be!

Date:

Astronomy

Nov. 03, 2012 Rise Set
Actual Time 7:41 AM EDT 6:42 PM EDT
Civil Twilight 7:17 AM EDT 7:06 PM EDT
Nautical Twilight 6:49 AM EDT 7:34 PM EDT
Astronomical Twilight 6:21 AM EDT 8:02 PM EDT
Moon 10:29 PM EDT (11/3) 11:36 AM EDT (11/3)
Length of Visible Light 11h 49m
Length of Day
11h 00m
Waning Gibbous, 80% of the Moon is Illuminated
Nov 3
Waning Gibbous
Nov 6
Last Quarter
Nov 13
New
Nov 20
First Quarter
Nov 28
Full

Hourly Weather History & Observations

Time (EDT) Temp. Heat Index Dew Point Humidity Pressure Visibility Wind Dir Wind Speed Gust Speed Precip Events Conditions
12:15 AM 55.4 °F - 51.8 °F 88% 30.11 in 10.0 mi Calm Calm - N/A   Clear
12:35 AM 55.4 °F - 53.6 °F 94% 30.12 in 10.0 mi West 3.5 mph - N/A   Clear
12:55 AM 55.4 °F - 53.6 °F 94% 30.11 in 10.0 mi West 3.5 mph - N/A   Clear
1:15 AM 55.4 °F - 53.6 °F 94% 30.11 in 10.0 mi Calm Calm - N/A   Clear
1:35 AM 55.4 °F - 55.4 °F 100% 30.11 in 10.0 mi Calm Calm - N/A   Clear
1:55 AM 55.4 °F - - N/A% 30.10 in 10.0 mi Calm Calm - N/A   Clear
2:15 AM 55.4 °F - - N/A% 30.10 in 10.0 mi Calm Calm - N/A   Clear
2:35 AM 55.4 °F - - N/A% 30.10 in 10.0 mi Calm Calm - N/A   Clear
2:55 AM 55.4 °F - - N/A% 30.10 in 10.0 mi Calm Calm - N/A   Clear
3:15 AM 55.4 °F - - N/A% 30.09 in 7.0 mi SW 3.5 mph - N/A   Clear
3:35 AM 55.4 °F - - N/A% 30.09 in 7.0 mi Calm Calm - N/A   Clear
3:55 AM 57.2 °F - - N/A% 30.09 in 7.0 mi South 3.5 mph - N/A   Clear
4:15 AM 57.2 °F - - N/A% 30.09 in 5.0 mi Calm Calm - N/A   Haze
4:35 AM 55.4 °F - - N/A% 30.09 in 7.0 mi Calm Calm - N/A   Clear
4:55 AM 57.2 °F - - N/A% 30.09 in 4.0 mi Calm Calm - N/A   Haze
5:15 AM 55.4 °F - - N/A% 30.10 in 1.8 mi Calm Calm - N/A   Mist
5:35 AM 55.4 °F - - N/A% 30.10 in 2.0 mi Calm Calm - N/A   Clear
5:55 AM 55.4 °F - - N/A% 30.11 in 5.0 mi Calm Calm - N/A   Haze
6:15 AM 55.4 °F - - N/A% 30.12 in 3.0 mi Calm Calm - N/A   Clear
6:35 AM 55.4 °F - - N/A% 30.12 in 3.0 mi Calm Calm - N/A   Clear
6:55 AM 55.4 °F - - N/A% 30.13 in 1.2 mi Calm Calm - N/A   Mist
7:15 AM 55.4 °F - - N/A% 30.13 in 10.0 mi Calm Calm - N/A   Clear
7:35 AM 55.4 °F - - N/A% 30.13 in 7.0 mi Calm Calm - N/A   Clear
7:55 AM 55.4 °F - - N/A% 30.14 in 4.0 mi Calm Calm - N/A   Haze
8:15 AM 55.4 °F - - N/A% 30.15 in 5.0 mi Calm Calm - N/A   Haze
8:35 AM 59.0 °F - - N/A% 30.16 in 5.0 mi Calm Calm - N/A   Haze
8:55 AM 62.6 °F - - N/A% 30.16 in 7.0 mi Calm Calm - N/A   Scattered Clouds
9:15 AM 64.4 °F - - N/A% 30.17 in 7.0 mi Calm Calm - N/A   Scattered Clouds
9:35 AM 66.2 °F - - N/A% 30.17 in 10.0 mi Calm Calm - N/A   Mostly Cloudy
9:55 AM 69.8 °F - - N/A% 30.17 in 10.0 mi Calm Calm - N/A   Scattered Clouds
10:15 AM 73.4 °F - 64.4 °F 73% 30.17 in 10.0 mi West 3.5 mph - N/A   Clear
10:35 AM 75.2 °F - 64.4 °F 69% 30.17 in 10.0 mi Calm Calm - N/A   Clear
10:55 AM 75.2 °F - 66.2 °F 73% 30.17 in 10.0 mi NW 3.5 mph - N/A   Clear
11:15 AM 77.0 °F - 66.2 °F 69% 30.17 in 10.0 mi NW 6.9 mph - N/A   Clear
11:35 AM 77.0 °F - 66.2 °F 69% 30.16 in 10.0 mi WNW 4.6 mph - N/A   Clear
11:55 AM 78.8 °F - 64.4 °F 61% 30.15 in 10.0 mi NNW 5.8 mph - N/A   Clear
12:15 PM 78.8 °F - 62.6 °F 57% 30.15 in 10.0 mi Calm Calm - N/A   Clear
12:35 PM 80.6 °F 81.8 °F 62.6 °F 54% 30.15 in 10.0 mi North 5.8 mph - N/A   Scattered Clouds
12:55 PM 80.6 °F 81.5 °F 60.8 °F 51% 30.14 in 10.0 mi North 4.6 mph - N/A   Scattered Clouds
1:15 PM 82.4 °F 82.5 °F 59.0 °F 45% 30.13 in 10.0 mi NE 3.5 mph - N/A   Scattered Clouds
1:35 PM 82.4 °F 82.0 °F 57.2 °F 42% 30.12 in 10.0 mi Calm Calm - N/A   Clear
1:55 PM 82.4 °F 82.5 °F 59.0 °F 45% 30.12 in 10.0 mi NNW 5.8 mph - N/A   Clear
2:15 PM 82.4 °F 81.7 °F 55.4 °F 39% 30.11 in 10.0 mi Calm Calm - N/A   Clear
2:35 PM 84.2 °F 83.0 °F 55.4 °F 37% 30.10 in 10.0 mi NNW 4.6 mph - N/A   Clear
2:55 PM 84.2 °F 82.8 °F 53.6 °F 35% 30.09 in 10.0 mi Calm Calm - N/A   Scattered Clouds
3:15 PM 84.2 °F 83.0 °F 55.4 °F 37% 30.09 in 10.0 mi NNE 4.6 mph - N/A   Clear
3:35 PM 84.2 °F 83.0 °F 55.4 °F 37% 30.09 in 10.0 mi North 3.5 mph - N/A   Clear
3:55 PM 84.2 °F 83.0 °F 55.4 °F 37% 30.08 in 10.0 mi Calm Calm - N/A   Clear
4:15 PM 84.2 °F - 51.8 °F 33% 30.08 in 10.0 mi Calm Calm - N/A   Clear
4:35 PM 84.2 °F 82.8 °F 53.6 °F 35% 30.08 in 10.0 mi North 5.8 mph - N/A   Clear
4:55 PM 82.4 °F 81.4 °F 53.6 °F 37% 30.08 in 10.0 mi NNE 4.6 mph - N/A   Clear
5:15 PM 82.4 °F 81.4 °F 53.6 °F 37% 30.08 in 10.0 mi NNE 3.5 mph - N/A   Clear
5:35 PM 82.4 °F 81.4 °F 53.6 °F 37% 30.08 in 10.0 mi NNW 3.5 mph - N/A   Clear
5:55 PM 80.6 °F 80.3 °F 53.6 °F 39% 30.08 in 10.0 mi Calm Calm - N/A   Clear
6:15 PM 78.8 °F - 62.6 °F 57% 30.08 in 10.0 mi Calm Calm - N/A   Clear
6:35 PM 77.0 °F - 62.6 °F 61% 30.09 in 10.0 mi West 5.8 mph - N/A   Clear
6:55 PM 75.2 °F - 64.4 °F 69% 30.09 in 10.0 mi West 5.8 mph - N/A   Clear
7:15 PM 75.2 °F - 64.4 °F 69% 30.10 in 10.0 mi Calm Calm - N/A   Clear
7:35 PM 75.2 °F - 64.4 °F 69% 30.10 in 10.0 mi NW 3.5 mph - N/A   Clear
7:55 PM 73.4 °F - 64.4 °F 73% 30.10 in 10.0 mi WNW 3.5 mph - N/A   Clear
8:15 PM 73.4 °F - 64.4 °F 73% 30.11 in 10.0 mi NW 3.5 mph - N/A   Clear
8:35 PM 73.4 °F - 64.4 °F 73% 30.11 in 10.0 mi NW 4.6 mph - N/A   Clear
8:55 PM 71.6 °F - 64.4 °F 78% 30.12 in 10.0 mi NW 3.5 mph - N/A   Clear
9:15 PM 71.6 °F - 64.4 °F 78% 30.12 in 10.0 mi NW 3.5 mph - N/A   Clear
9:35 PM 69.8 °F - 64.4 °F 83% 30.12 in 10.0 mi Calm Calm - N/A   Clear
9:55 PM 68.0 °F - 64.4 °F 88% 30.12 in 10.0 mi Calm Calm - N/A   Clear
10:15 PM 66.2 °F - 66.2 °F 100% 30.12 in 7.0 mi Calm Calm - N/A   Clear
10:35 PM 66.2 °F - - N/A% 30.12 in 7.0 mi Calm Calm - N/A   Clear
10:55 PM 62.6 °F - - N/A% 30.13 in 3.0 mi Calm Calm - N/A   Clear
11:15 PM 66.2 °F - - N/A% 30.13 in 4.0 mi Calm Calm - N/A   Haze
11:35 PM 64.4 °F - - N/A% 30.13 in 5.0 mi Calm Calm - N/A   Haze
11:55 PM 64.4 °F - - N/A% 30.13 in 1.8 mi Calm Calm - N/A   Mist